| time (UTC) | temp C | wind direction | speed KPH | gust KPH | rain 1hr cm | rain 24hr cm | rain mn cm | humidity % | barometer mb |
| 20260905214517 | 25 | 338 | 1.6 | 4.8 | 0.00 | 0.03 | 0.03 | 83 | 1017.6 |
| 20260905213517 | 24 | 0.0 | 3.2 | 0.00 | 0.03 | 0.03 | 83 | 1017.7 | |
| 20260905212517 | 25 | 315 | 1.6 | 6.4 | 0.00 | 0.03 | 0.03 | 82 | 1017.6 |
| 20260905211517 | 24 | 68 | 1.6 | 6.4 | 0.00 | 0.03 | 0.03 | 81 | 1017.5 |
| 20260905210517 | 25 | 68 | 3.2 | 6.4 | 0.00 | 0.03 | 0.03 | 80 | 1017.8 |
| 20260905205517 | 25 | 90 | 4.8 | 11.3 | 0.00 | 0.03 | 0.03 | 80 | 1017.7 |
| 20260905204517 | 25 | 45 | 3.2 | 11.3 | 0.00 | 0.03 | 0.03 | 82 | 1017.6 |
| 20260905203516 | 24 | 68 | 6.4 | 12.9 | 0.00 | 0.03 | 0.03 | 81 | 1017.6 |
| 20260905202516 | 24 | 315 | 1.6 | 6.4 | 0.00 | 0.03 | 0.03 | 82 | 1017.6 |
| 20260905201517 | 24 | 68 | 4.8 | 11.3 | 0.00 | 0.03 | 0.03 | 83 | 1017.7 |
| 20260905200517 | 24 | 68 | 6.4 | 14.5 | 0.00 | 0.03 | 0.03 | 83 | 1018.0 |
| 20260905195537 | 24 | 90 | 8.0 | 12.9 | 0.00 | 0.03 | 0.03 | 81 | 1017.8 |
| 20260905194516 | 25 | 68 | 3.2 | 9.7 | 0.00 | 0.03 | 0.03 | 83 | 1018.1 |
| 20260905193536 | 24 | 90 | 8.0 | 17.7 | 0.00 | 0.03 | 0.03 | 84 | 1017.8 |
| 20260905192516 | 24 | 68 | 8.0 | 12.9 | 0.00 | 0.03 | 0.03 | 82 | 1018.0 |
| 20260905191537 | 24 | 90 | 9.7 | 17.7 | 0.00 | 0.03 | 0.03 | 84 | 1017.9 |
| 20260905190516 | 24 | 68 | 6.4 | 16.1 | 0.00 | 0.03 | 0.03 | 84 | 1017.9 |
| 20260905185518 | 24 | 90 | 9.7 | 17.7 | 0.00 | 0.03 | 0.03 | 83 | 1018.0 |
| 20260905184517 | 25 | 45 | 8.0 | 14.5 | 0.00 | 0.03 | 0.03 | 82 | 1018.0 |
| 20260905183536 | 25 | 90 | 8.0 | 17.7 | 0.00 | 0.03 | 0.03 | 80 | 1018.1 |
| 20260905182516 | 25 | 68 | 8.0 | 17.7 | 0.00 | 0.03 | 0.03 | 83 | 1018.1 |
| 20260905181516 | 25 | 68 | 6.4 | 14.5 | 0.00 | 0.03 | 0.03 | 82 | 1018.1 |
| 20260905180516 | 24 | 90 | 6.4 | 12.9 | 0.00 | 0.03 | 0.03 | 85 | 1018.4 |
| 20260905175516 | 24 | 68 | 6.4 | 12.9 | 0.00 | 0.03 | 0.03 | 85 | 1018.5 |
| 20260905174516 | 24 | 68 | 8.0 | 16.1 | 0.00 | 0.05 | 0.03 | 84 | 1018.3 |
| 20260905173516 | 24 | 45 | 4.8 | 12.9 | 0.00 | 0.10 | 0.03 | 84 | 1018.4 |
| 20260905172516 | 25 | 68 | 1.6 | 9.7 | 0.00 | 0.10 | 0.03 | 85 | 1018.5 |
| 20260905171516 | 24 | 68 | 4.8 | 14.5 | 0.00 | 0.13 | 0.03 | 86 | 1018.4 |
| 20260905170516 | 25 | 90 | 4.8 | 11.3 | 0.00 | 0.15 | 0.03 | 85 | 1018.3 |
| 20260905165516 | 25 | 68 | 6.4 | 12.9 | 0.00 | 0.18 | 0.03 | 84 | 1018.4 |
| 20260905164516 | 25 | 68 | 4.8 | 12.9 | 0.00 | 0.56 | 0.03 | 85 | 1018.3 |
| 20260905163556 | 24 | 68 | 6.4 | 14.5 | 0.00 | 0.89 | 0.03 | 83 | 1018.2 |
| 20260905162516 | 25 | 90 | 9.7 | 20.9 | 0.00 | 0.91 | 0.03 | 81 | 1018.4 |
| 20260905161516 | 24 | 68 | 6.4 | 11.3 | 0.00 | 0.91 | 0.03 | 85 | 1018.2 |
| 20260905160516 | 23 | 68 | 4.8 | 11.3 | 0.00 | 0.91 | 0.03 | 89 | 1018.2 |
| 20260905155516 | 23 | 68 | 8.0 | 14.5 | 0.00 | 0.91 | 0.03 | 90 | 1018.2 |
| 20260905154516 | 23 | 68 | 8.0 | 16.1 | 0.00 | 0.91 | 0.03 | 94 | 1018.1 |
| 20260905153516 | 23 | 68 | 4.8 | 9.7 | 0.00 | 0.91 | 0.03 | 97 | 1018.0 |
| 20260905152516 | 22 | 68 | 3.2 | 6.4 | 0.00 | 0.91 | 0.03 | 98 | 1018.0 |
| 20260905151516 | 22 | 68 | 4.8 | 11.3 | 0.00 | 0.91 | 0.03 | 98 | 1017.9 |
| 20260905150516 | 22 | 45 | 4.8 | 9.7 | 0.00 | 0.91 | 0.03 | 99 | 1017.7 |
| 20260905145516 | 22 | 68 | 4.8 | 12.9 | 0.00 | 0.91 | 0.03 | 99 | 1017.7 |
| 20260905144558 | 22 | 68 | 6.4 | 11.3 | 0.00 | 0.94 | 0.03 | 99 | 1017.5 |
| 20260905143556 | 21 | 45 | 4.8 | 9.7 | 0.00 | 0.94 | 0.03 | 99 | 1017.5 |
| 20260905142516 | 21 | 68 | 4.8 | 11.3 | 0.00 | 0.94 | 0.03 | 99 | 1017.4 |
| 20260905141516 | 21 | 68 | 4.8 | 9.7 | 0.00 | 0.94 | 0.03 | 99 | 1017.3 |
| 20260905140516 | 21 | 45 | 8.0 | 16.1 | 0.00 | 0.94 | 0.03 | 98 | 1017.3 |
| 20260905135516 | 21 | 68 | 4.8 | 17.7 | 0.00 | 0.94 | 0.03 | 99 | 1017.2 |
| 20260905134536 | 21 | 90 | 4.8 | 12.9 | 0.00 | 0.94 | 0.03 | 99 | 1016.9 |
| 20260905133516 | 21 | 68 | 3.2 | 9.7 | 0.00 | 0.94 | 0.03 | 98 | 1016.7 |
| 20260905132516 | 21 | 90 | 3.2 | 11.3 | 0.00 | 0.94 | 0.03 | 99 | 1016.5 |
| 20260905131516 | 21 | 68 | 4.8 | 9.7 | 0.03 | 0.94 | 0.03 | 99 | 1016.6 |
| 20260905130516 | 21 | 90 | 3.2 | 6.4 | 0.03 | 0.94 | 0.03 | 99 | 1016.6 |
| 20260905125516 | 21 | 45 | 3.2 | 6.4 | 0.03 | 0.94 | 0.03 | 99 | 1016.5 |
| 20260905124536 | 21 | 68 | 6.4 | 14.5 | 0.03 | 0.94 | 0.03 | 99 | 1016.3 |
| 20260905123516 | 21 | 68 | 4.8 | 9.7 | 0.03 | 0.94 | 0.03 | 99 | 1016.3 |
| 20260905122516 | 21 | 45 | 3.2 | 11.3 | 0.03 | 0.94 | 0.03 | 99 | 1016.5 |
| 20260905121516 | 21 | 0.0 | 1.6 | 0.00 | 0.91 | 0.00 | 99 | 1016.3 | |
| 20260905120536 | 21 | 0.0 | 4.8 | 0.00 | 0.91 | 0.00 | 99 | 1016.1 | |
| 20260905115516 | 21 | 45 | 1.6 | 4.8 | 0.00 | 0.91 | 0.00 | 98 | 1015.9 |
| 20260905114516 | 21 | 0.0 | 0.0 | 0.00 | 0.91 | 0.00 | 99 | 1016.0 | |
| 20260905113536 | 21 | 0.0 | 3.2 | 0.00 | 0.91 | 0.00 | 98 | 1015.9 | |
| 20260905112516 | 21 | 0.0 | 3.2 | 0.00 | 0.91 | 0.00 | 99 | 1015.6 | |
| 20260905111517 | 20 | 68 | 4.8 | 8.0 | 0.00 | 0.91 | 0.00 | 99 | 1015.2 |
| 20260905110516 | 20 | 0.0 | 0.0 | 0.00 | 0.91 | 0.00 | 98 | 1015.1 | |
| 20260905105516 | 20 | 0.0 | 0.0 | 0.00 | 0.91 | 0.00 | 98 | 1015.0 | |
| 20260905104516 | 20 | 0.0 | 1.6 | 0.00 | 1.04 | 0.00 | 98 | 1015.0 | |
| 20260905103517 | 20 | 0.0 | 3.2 | 0.00 | 1.04 | 0.00 | 98 | 1014.7 | |
| 20260905102636 | 20 | 68 | 3.2 | 4.8 | 0.00 | 1.04 | 0.00 | 98 | 1014.7 |
| 20260905101516 | 20 | 68 | 1.6 | 4.8 | 0.00 | 1.04 | 0.00 | 98 | 1014.7 |
| 20260905100516 | 20 | 0.0 | 0.0 | 0.00 | 1.04 | 0.00 | 98 | 1014.6 | |
| 20260905095516 | 20 | 0.0 | 0.0 | 0.00 | 1.04 | 0.00 | 98 | 1014.6 | |
| 20260905094516 | 20 | 68 | 1.6 | 4.8 | 0.00 | 1.04 | 0.00 | 98 | 1014.7 |
| 20260905093536 | 20 | 0.0 | 4.8 | 0.00 | 1.04 | 0.00 | 98 | 1014.7 | |
| 20260905092516 | 20 | 0.0 | 0.0 | 0.00 | 1.04 | 0.00 | 98 | 1014.6 | |
| 20260905091516 | 20 | 68 | 3.2 | 6.4 | 0.00 | 1.04 | 0.00 | 98 | 1014.8 |
| 20260905090516 | 20 | 0.0 | 0.0 | 0.00 | 1.04 | 0.00 | 98 | 1014.8 | |
| 20260905085516 | 20 | 0.0 | 0.0 | 0.00 | 1.04 | 0.00 | 98 | 1014.8 | |
| 20260905084516 | 20 | 0.0 | 0.0 | 0.00 | 1.04 | 0.00 | 98 | 1014.9 | |
| 20260905083516 | 20 | 0.0 | 0.0 | 0.00 | 1.04 | 0.00 | 98 | 1014.8 | |
| 20260905082557 | 20 | 0.0 | 0.0 | 0.00 | 1.04 | 0.00 | 98 | 1014.8 | |
| 20260905081536 | 20 | 0.0 | 0.0 | 0.00 | 1.04 | 0.00 | 98 | 1014.8 | |
| 20260905080536 | 20 | 0.0 | 0.0 | 0.00 | 1.04 | 0.00 | 98 | 1014.8 | |
| 20260905075515 | 20 | 0.0 | 0.0 | 0.00 | 1.04 | 0.00 | 97 | 1014.8 | |
| 20260905074536 | 20 | 0.0 | 0.0 | 0.00 | 1.04 | 0.00 | 97 | 1014.8 | |
| 20260905073515 | 20 | 0.0 | 0.0 | 0.00 | 1.04 | 0.00 | 97 | 1014.7 | |
| 20260905072515 | 20 | 0.0 | 0.0 | 0.00 | 1.04 | 0.00 | 98 | 1014.7 | |
| 20260905071515 | 20 | 0.0 | 0.0 | 0.00 | 1.04 | 0.00 | 98 | 1014.8 | |
| 20260905070536 | 20 | 0.0 | 1.6 | 0.00 | 1.04 | 0.00 | 98 | 1014.8 | |
| 20260905065656 | 20 | 45 | 3.2 | 4.8 | 0.00 | 1.04 | 0.00 | 98 | 1014.8 |
| 20260905064535 | 20 | 0.0 | 1.6 | 0.00 | 1.04 | 0.00 | 98 | 1014.8 | |
| 20260905063515 | 20 | 0.0 | 1.6 | 0.00 | 1.04 | 0.00 | 98 | 1014.8 | |
| 20260905062537 | 20 | 0.0 | 0.0 | 0.00 | 1.04 | 0.00 | 98 | 1014.6 | |
| 20260905061537 | 20 | 45 | 1.6 | 6.4 | 0.00 | 1.04 | 0.00 | 98 | 1014.7 |
| 20260905060515 | 20 | 0.0 | 0.0 | 0.00 | 1.04 | 0.00 | 97 | 1014.6 | |
| 20260905055516 | 20 | 0.0 | 0.0 | 0.00 | 1.04 | 0.00 | 97 | 1014.6 | |
| 20260905054515 | 20 | 45 | 1.6 | 4.8 | 0.00 | 1.04 | 0.00 | 97 | 1014.5 |
| 20260905053515 | 20 | 45 | 3.2 | 6.4 | 0.00 | 1.04 | 0.00 | 97 | 1014.6 |
| 20260905052515 | 20 | 270 | 1.6 | 4.8 | 0.00 | 1.04 | 0.00 | 97 | 1014.6 |
| 20260905051535 | 20 | 90 | 3.2 | 6.4 | 0.00 | 1.04 | 0.00 | 96 | 1014.7 |
| 20260905050515 | 20 | 0.0 | 0.0 | 0.00 | 1.04 | 0.00 | 97 | 1014.5 | |
| 20260905045516 | 20 | 0.0 | 0.0 | 0.00 | 1.04 | 1.04 | 97 | 1014.4 | |
| 20260905044516 | 20 | 0.0 | 0.0 | 0.00 | 1.04 | 1.04 | 96 | 1014.5 | |
| 20260905043516 | 20 | 0.0 | 0.0 | 0.00 | 1.04 | 1.04 | 96 | 1014.5 | |
| 20260905042516 | 20 | 68 | 3.2 | 6.4 | 0.00 | 1.04 | 1.04 | 96 | 1014.6 |
| 20260905041536 | 20 | 0.0 | 0.0 | 0.00 | 1.04 | 1.04 | 96 | 1014.2 | |
| 20260905040516 | 20 | 45 | 1.6 | 6.4 | 0.00 | 1.07 | 1.04 | 96 | 1014.4 |
| 20260905035516 | 20 | 68 | 4.8 | 8.0 | 0.00 | 1.09 | 1.04 | 96 | 1014.4 |
| 20260905034536 | 20 | 225 | 3.2 | 4.8 | 0.00 | 1.09 | 1.04 | 96 | 1014.2 |
| 20260905033516 | 20 | 270 | 4.8 | 9.7 | 0.00 | 1.09 | 1.04 | 95 | 1014.3 |
| 20260905032516 | 21 | 0.0 | 0.0 | 0.00 | 1.09 | 1.04 | 93 | 1014.4 | |
| 20260905031516 | 21 | 45 | 3.2 | 4.8 | 0.00 | 1.09 | 1.04 | 92 | 1014.4 |
| 20260905030516 | 21 | 158 | 1.6 | 6.4 | 0.00 | 1.09 | 1.04 | 92 | 1014.4 |
| 20260905025538 | 21 | 0.0 | 0.0 | 0.00 | 1.09 | 1.04 | 92 | 1014.3 | |
| 20260905024516 | 21 | 0.0 | 0.0 | 0.00 | 1.09 | 1.04 | 93 | 1014.2 | |
| 20260905023516 | 21 | 0.0 | 3.2 | 0.00 | 1.09 | 1.04 | 94 | 1014.2 | |
| 20260905022516 | 21 | 45 | 3.2 | 6.4 | 0.00 | 1.09 | 1.04 | 95 | 1014.2 |
| 20260905021516 | 21 | 270 | 3.2 | 4.8 | 0.00 | 1.09 | 1.04 | 94 | 1014.2 |
| 20260905020556 | 22 | 0.0 | 3.2 | 0.00 | 1.09 | 1.04 | 92 | 1014.2 | |
| 20260905015516 | 22 | 0.0 | 0.0 | 0.00 | 1.09 | 1.04 | 91 | 1014.2 | |
| 20260905014516 | 22 | 0.0 | 0.0 | 0.00 | 1.09 | 1.04 | 91 | 1014.3 | |
| 20260905013516 | 22 | 90 | 3.2 | 6.4 | 0.00 | 1.09 | 1.04 | 91 | 1014.2 |
| 20260905012516 | 22 | 90 | 1.6 | 4.8 | 0.00 | 1.09 | 1.04 | 91 | 1014.4 |
| 20260905011536 | 22 | 0.0 | 3.2 | 0.00 | 1.09 | 1.04 | 90 | 1014.2 | |
| 20260905010516 | 22 | 0.0 | 3.2 | 0.00 | 1.09 | 1.04 | 91 | 1014.1 | |
| 20260905005516 | 22 | 68 | 3.2 | 4.8 | 0.00 | 1.09 | 1.04 | 91 | 1013.9 |
| 20260905004516 | 23 | 0.0 | 4.8 | 0.00 | 1.09 | 1.04 | 89 | 1014.0 | |
| 20260905003516 | 23 | 0.0 | 0.0 | 0.00 | 1.09 | 1.04 | 87 | 1013.9 | |
| 20260905002516 | 24 | 0.0 | 0.0 | 0.00 | 1.09 | 1.04 | 85 | 1013.6 | |
| 20260905001516 | 24 | 0.0 | 0.0 | 0.00 | 1.09 | 1.04 | 85 | 1013.6 | |
| 20260905000516 | 25 | 0.0 | 3.2 | 0.00 | 1.09 | 1.04 | 84 | 1013.3 | |
| 20260904235516 | 25 | 0.0 | 3.2 | 0.00 | 1.09 | 1.04 | 84 | 1013.2 | |
| 20260904234515 | 25 | 225 | 3.2 | 6.4 | 0.00 | 1.09 | 1.04 | 86 | 1013.3 |
| 20260904233536 | 25 | 270 | 1.6 | 6.4 | 0.00 | 1.09 | 1.04 | 86 | 1013.3 |
| 20260904232535 | 25 | 270 | 3.2 | 9.7 | 0.00 | 1.09 | 1.04 | 84 | 1013.3 |
| 20260904231515 | 25 | 248 | 3.2 | 9.7 | 0.00 | 1.09 | 1.04 | 86 | 1013.4 |
| 20260904230515 | 24 | 270 | 3.2 | 6.4 | 0.00 | 1.09 | 1.04 | 88 | 1013.3 |
| 20260904225516 | 23 | 270 | 3.2 | 9.7 | 0.00 | 1.09 | 1.04 | 91 | 1013.5 |
| 20260904224515 | 23 | 225 | 3.2 | 9.7 | 0.00 | 1.09 | 1.04 | 91 | 1013.5 |
| 20260904223515 | 23 | 225 | 4.8 | 8.0 | 0.00 | 1.09 | 1.04 | 90 | 1013.5 |
| 20260904222515 | 23 | 248 | 4.8 | 12.9 | 0.00 | 1.09 | 1.04 | 91 | 1013.4 |
| 20260904221515 | 23 | 248 | 6.4 | 12.9 | 0.00 | 1.09 | 1.04 | 91 | 1013.4 |
| 20260904220516 | 24 | 248 | 1.6 | 6.4 | 0.00 | 1.09 | 1.04 | 92 | 1013.2 |
| 20260904215535 | 24 | 0.0 | 1.6 | 0.00 | 1.09 | 1.04 | 90 | 1012.8 |